Agassiz, British Columbia

8:45 PM PDT on May 25, 2017 (GMT -0700)
Agassiz

Weather History for CWZA - October, 2012

Change the Weather History Date:

Thursday, October 11, 2012

  Actual Average Record
Temperature  
Mean Temperature 52 °F -  
Max Temperature 62 °F 55 °F - ()
Min Temperature 43 °F 41 °F - ()
Degree Days  
Heating Degree Days 12    
Growing Degree Days 2 (Base 50)    
Moisture  
Dew Point 48 °F    
Average Humidity 82    
Maximum Humidity 96    
Minimum Humidity 56    
Precipitation  
Precipitation 0.00 in 0.26 in - ()
Sea Level Pressure  
Sea Level Pressure 29.92 in    
Wind  
Wind Speed 1 mph ()    
Max Wind Speed 4 mph    
Max Gust Speed -    
T = Trace of Precipitation, MM = Missing Value Source: Averaged Metar Reports

Daily Weather History Graph

Daily Weather History Graph

Search for Another Location

Airport or City:

Trip Planner

Search our weather history database for the weather conditions in past years. The results will help you decide how hot, cold, wet, or windy it might be!

Date:

Astronomy

Oct. 11, 2012 Rise Set
Actual Time 7:22 AM PDT 6:23 PM PDT
Civil Twilight 6:50 AM PDT 6:55 PM PDT
Nautical Twilight 6:13 AM PDT 7:32 PM PDT
Astronomical Twilight 5:36 AM PDT 8:09 PM PDT
Moon 2:46 AM PDT (10/11) 4:19 PM PDT (10/11)
Length of Visible Light 12h 04m
Length of Day
11h 00m
Waning Crescent, 17% of the Moon is Illuminated
Oct 11
Waning Crescent
Oct 15
New
Oct 21
First Quarter
Oct 29
Full
Nov 6
Last Quarter

Hourly Weather History & Observations

Time (PDT) Temp. Dew Point Humidity Pressure Visibility Wind Dir Wind Speed Gust Speed Precip Events Conditions
12:00 AM 49.5 °F 47.7 °F 94% 30.03 in - NE 1.2 mph - N/A   Unknown
1:00 AM 49.5 °F 47.8 °F 94% 30.02 in - SSE 2.3 mph - N/A   Unknown
2:00 AM 49.1 °F 47.3 °F 93% 30.02 in - North 1.2 mph - N/A   Unknown
3:00 AM 49.3 °F 47.8 °F 95% 30.01 in - Calm Calm - N/A   Unknown
4:00 AM 49.1 °F 47.8 °F 95% 30.01 in - Calm Calm - N/A   Unknown
5:00 AM 49 °F 47 °F 92% 30.01 in - SE 1.2 mph - -  
5:00 AM 48.7 °F 47.5 °F 95% 30.01 in - SE 1.2 mph - N/A   Unknown
6:00 AM 45.5 °F 44.2 °F 95% 29.99 in - Calm Calm - N/A   Unknown
10:00 AM 52.7 °F 46.8 °F 80% 29.99 in - SE 1.2 mph - N/A   Unknown
11:00 AM 56 °F 48 °F 67% 29.95 in - SE 2.3 mph - -  
11:00 AM 55.8 °F 48.0 °F 75% 29.95 in - SE 2.3 mph - N/A   Unknown
1:00 PM 59.4 °F 48.7 °F 68% 29.93 in - SW 3.5 mph - N/A   Unknown
2:00 PM 60.3 °F 48.0 °F 64% 29.90 in - SW 2.3 mph - N/A   Unknown
3:00 PM 61.0 °F 48.4 °F 63% 29.87 in - SW 3.5 mph - N/A   Unknown
4:00 PM 62.1 °F 49.1 °F 62% 29.85 in - SSW 3.5 mph - N/A   Unknown
5:00 PM 61 °F 49 °F 56% 29.84 in - WSW 3.5 mph - -  
5:00 PM 60.6 °F 49.5 °F 67% 29.84 in - WSW 3.5 mph - N/A   Unknown
8:00 PM 47.5 °F 45.7 °F 93% 29.81 in - Calm Calm - N/A   Unknown
9:00 PM 48.7 °F 47.7 °F 96% 29.81 in - Calm Calm - N/A   Unknown
10:00 PM 49.8 °F 46.9 °F 90% 29.83 in - SSW 2.3 mph - N/A   Unknown
11:00 PM 49 °F 47 °F 90% 29.81 in - SE 1.2 mph - -  
11:00 PM 49.5 °F 46.9 °F 91% 29.81 in - SE 1.2 mph - N/A   Unknown